Location: Unspecified
(43.8044°N, 11.0278°E)
Time: 08:41:35
(UTC+01:00)

Cosmos 1674 - Visible Passes

Search period start: 26 October 2014 00:00
Search period end: 04 November 2014 23:00
Orbit: 514 x 540 km, 82.5° (Epoch: 24 October)

Date Brightness Start Highest point End Pass type
(mag) Time Alt. Az. Time Alt. Az. Time Alt. Az.
26 Oct 2.7 05:14:23 10° S 05:18:20 85° W 05:22:19 10° N visible
27 Oct 2.7 05:02:58 10° S 05:06:55 87° E 05:10:55 10° N visible
28 Oct 2.8 04:51:33 10° S 04:55:30 79° E 04:59:29 10° N visible
29 Oct 2.9 04:42:01 27° S 04:44:04 71° E 04:48:02 10° NNE visible
30 Oct 3.2 04:32:55 61° ENE 04:32:55 61° ENE 04:36:33 10° NNE visible
30 Oct 4.7 06:08:17 10° WNW 06:09:01 11° WNW 06:09:52 10° NW visible
31 Oct 4.5 04:23:03 28° NNE 04:23:03 28° NNE 04:25:03 10° NNE visible
31 Oct 4.8 05:58:22 11° NW 05:58:22 11° NW 05:58:54 10° NW visible
01 Nov 5.3 04:12:46 15° NNE 04:12:46 15° NNE 04:13:32 10° NNE visible
